When you browse on this site, cookies collect data to enhance your experience and personalize the content and advertising you see.
Visit our Privacy Policy to learn more. By continuing to use the site, you agree to this use of cookies and data.
  • In United Kingdom
  • List of Countries
  • For 7 days
  • Water Temperature
  • Weather Map
  • Weather Widgets
  • user-avatar
    Login

    Hourly Weather Banbridge

    Today, 17 October, Thursday

    Time Temperature Precipitation Wind Pressure Humidity
    00:00 +6°C° 0 mm 4 mps 742 mmHg 91%
    01:00 +6°C° 0 mm 4 mps 741 mmHg 90%
    02:00 +6°C° 0 mm 4 mps 741 mmHg 89%
    03:00 +7°C° 0 mm 4 mps 740 mmHg 88%
    04:00 +7°C° 0 mm 4 mps 740 mmHg 88%
    05:00 +7°C° 0 mm 4 mps 740 mmHg 88%
    06:00 +7°C° 0 mm 4 mps 740 mmHg 88%
    07:00 +8°C° 0 mm 4 mps 740 mmHg 86%
    08:00 +8°C° 0 mm 5 mps 739 mmHg 85%
    09:00 +9°C° 0 mm 5 mps 739 mmHg 83%
    10:00 +10°C° 0.1 mm 5 mps 739 mmHg 82%
    11:00 +10°C° 0.1 mm 5 mps 739 mmHg 80%
    12:00 +11°C° 0.1 mm 6 mps 739 mmHg 78%
    13:00 +12°C° 1 mm 5 mps 739 mmHg 81%
    14:00 +10°C° 1 mm 5 mps 738 mmHg 83%
    15:00 +11°C° 1 mm 4 mps 738 mmHg 86%
    16:00 +10°C° 0.4 mm 4 mps 738 mmHg 87%
    17:00 +8°C° 0.4 mm 4 mps 738 mmHg 89%
    18:00 +8°C° 0.4 mm 3 mps 737 mmHg 91%
    19:00 +8°C° 0.1 mm 3 mps 737 mmHg 91%
    20:00 +7°C° 0.1 mm 3 mps 738 mmHg 92%
    21:00 +7°C° 0.1 mm 3 mps 738 mmHg 92%
    22:00 +6°C° 0 mm 2 mps 738 mmHg 92%
    23:00 +6°C° 0 mm 2 mps 738 mmHg 93%

    Tomorrow, 18 October, Friday

    Time Temperature Precipitation Wind Pressure Humidity
    00:00 +6°C° 0 mm 2 mps 738 mmHg 93%
    01:00 +5°C° 0 mm 2 mps 737 mmHg 93%
    02:00 +6°C° 0 mm 1 mps 737 mmHg 93%
    03:00 +6°C° 0 mm 1 mps 737 mmHg 93%
    04:00 +6°C° 0 mm 1 mps 737 mmHg 93%
    05:00 +6°C° 0 mm 1 mps 737 mmHg 92%
    06:00 +6°C° 0 mm 1 mps 737 mmHg 92%
    07:00 +7°C° 0 mm 1 mps 737 mmHg 91%
    08:00 +7°C° 0 mm 1 mps 737 mmHg 90%
    09:00 +7°C° 0 mm 0 mps 737 mmHg 89%
    10:00 +10°C° 0 mm 1 mps 737 mmHg 85%
    11:00 +11°C° 0 mm 1 mps 737 mmHg 81%
    12:00 +12°C° 0 mm 1 mps 737 mmHg 77%
    13:00 +12°C° 0.1 mm 2 mps 737 mmHg 78%
    14:00 +12°C° 0.1 mm 2 mps 737 mmHg 78%
    15:00 +11°C° 0.1 mm 3 mps 737 mmHg 79%
    16:00 +10°C° 0.1 mm 3 mps 737 mmHg 83%
    17:00 +8°C° 0.1 mm 3 mps 737 mmHg 88%
    18:00 +7°C° 0.1 mm 3 mps 737 mmHg 93%
    19:00 +7°C° 0 mm 3 mps 737 mmHg 93%
    20:00 +7°C° 0 mm 3 mps 738 mmHg 94%
    21:00 +5°C° 0 mm 3 mps 738 mmHg 94%
    22:00 +5°C° 0 mm 3 mps 738 mmHg 95%
    23:00 +5°C° 0 mm 3 mps 738 mmHg 95%

    Day after tomorrow, 19 October, Saturday

    Time Temperature Precipitation Wind Pressure Humidity
    00:00 +5°C° 0 mm 3 mps 739 mmHg 95%
    01:00 +5°C° 0 mm 3 mps 739 mmHg 95%
    02:00 +5°C° 0 mm 3 mps 739 mmHg 94%
    03:00 +6°C° 0 mm 2 mps 739 mmHg 94%
    04:00 +6°C° 0 mm 2 mps 740 mmHg 94%
    05:00 +7°C° 0 mm 2 mps 740 mmHg 94%
    06:00 +7°C° 0 mm 2 mps 740 mmHg 93%
    07:00 +8°C° 0 mm 2 mps 741 mmHg 93%
    08:00 +8°C° 0 mm 2 mps 741 mmHg 93%
    09:00 +9°C° 0 mm 3 mps 742 mmHg 92%
    10:00 +10°C° 0.2 mm 3 mps 742 mmHg 89%
    11:00 +11°C° 0.2 mm 3 mps 743 mmHg 85%
    12:00 +12°C° 0.2 mm 4 mps 743 mmHg 81%
    13:00 +12°C° 0.3 mm 3 mps 743 mmHg 81%
    14:00 +12°C° 0.3 mm 3 mps 744 mmHg 80%
    15:00 +12°C° 0.3 mm 3 mps 744 mmHg 80%
    16:00 +10°C° 0.1 mm 3 mps 744 mmHg 84%
    17:00 +9°C° 0.1 mm 3 mps 745 mmHg 87%
    18:00 +8°C° 0.1 mm 3 mps 746 mmHg 91%
    19:00 +7°C° 0 mm 3 mps 746 mmHg 92%
    20:00 +7°C° 0 mm 3 mps 747 mmHg 92%
    21:00 +5°C° 0 mm 3 mps 747 mmHg 93%
    22:00 +5°C° 0 mm 3 mps 748 mmHg 93%
    23:00 +5°C° 0 mm 3 mps 748 mmHg 93%

    20 October, Sunday

    Time Temperature Precipitation Wind Pressure Humidity
    00:00 +5°C° 0 mm 3 mps 749 mmHg 93%
    01:00 +5°C° 0 mm 3 mps 749 mmHg 92%
    02:00 +5°C° 0 mm 4 mps 749 mmHg 92%
    03:00 +5°C° 0 mm 4 mps 750 mmHg 91%
    04:00 +5°C° 0 mm 4 mps 750 mmHg 91%
    05:00 +4°C° 0 mm 4 mps 751 mmHg 91%
    06:00 +4°C° 0 mm 4 mps 751 mmHg 91%
    07:00 +5°C° 0 mm 4 mps 752 mmHg 89%
    08:00 +6°C° 0 mm 5 mps 752 mmHg 86%
    09:00 +6°C° 0 mm 5 mps 753 mmHg 84%
    10:00 +7°C° 0 mm 6 mps 753 mmHg 81%
    11:00 +8°C° 0 mm 7 mps 753 mmHg 78%
    12:00 +7°C° 0 mm 8 mps 754 mmHg 75%
    13:00 +7°C° 0 mm 8 mps 754 mmHg 76%
    14:00 +8°C° 0 mm 7 mps 754 mmHg 77%
    15:00 +8°C° 0 mm 7 mps 754 mmHg 78%
    16:00 +8°C° 0 mm 7 mps 754 mmHg 80%
    17:00 +8°C° 0 mm 6 mps 755 mmHg 83%
    18:00 +7°C° 0 mm 6 mps 755 mmHg 86%
    19:00 +7°C° 0 mm 5 mps 756 mmHg 88%
    20:00 +7°C° 0 mm 5 mps 756 mmHg 90%
    21:00 +6°C° 0 mm 4 mps 757 mmHg 92%
    22:00 +6°C° 0 mm 4 mps 757 mmHg 92%
    23:00 +6°C° 0 mm 4 mps 757 mmHg 93%

    21 October, Monday

    Time Temperature Precipitation Wind Pressure Humidity
    00:00 +6°C° 0 mm 4 mps 758 mmHg 93%
    01:00 +6°C° 0 mm 4 mps 758 mmHg 93%
    02:00 +7°C° 0 mm 3 mps 758 mmHg 93%
    03:00 +7°C° 0 mm 3 mps 758 mmHg 92%
    04:00 +7°C° 0 mm 3 mps 758 mmHg 93%
    05:00 +5°C° 0 mm 3 mps 759 mmHg 94%
    06:00 +5°C° 0 mm 3 mps 759 mmHg 95%
    07:00 +5°C° 0 mm 3 mps 759 mmHg 93%
    08:00 +7°C° 0 mm 3 mps 760 mmHg 91%
    09:00 +7°C° 0 mm 3 mps 760 mmHg 89%
    10:00 +8°C° 0 mm 3 mps 760 mmHg 86%
    11:00 +9°C° 0 mm 3 mps 760 mmHg 83%
    12:00 +10°C° 0 mm 3 mps 761 mmHg 80%
    13:00 +9°C° 0 mm 3 mps 760 mmHg 79%
    14:00 +9°C° 0 mm 2 mps 760 mmHg 79%
    15:00 +9°C° 0 mm 2 mps 760 mmHg 78%
    16:00 +8°C° 0 mm 2 mps 760 mmHg 80%
    17:00 +7°C° 0 mm 2 mps 760 mmHg 82%
    18:00 +7°C° 0 mm 1 mps 760 mmHg 84%
    19:00 +7°C° 0 mm 1 mps 760 mmHg 85%
    20:00 +6°C° 0 mm 1 mps 760 mmHg 85%
    21:00 +6°C° 0 mm 1 mps 760 mmHg 85%
    22:00 +6°C° 0 mm 1 mps 760 mmHg 86%
    23:00 +5°C° 0 mm 1 mps 760 mmHg 87%

    22 October, Tuesday

    Time Temperature Precipitation Wind Pressure Humidity
    00:00 +5°C° 0 mm 1 mps 760 mmHg 88%
    01:00 +5°C° 0 mm 1 mps 759 mmHg 89%
    02:00 +4°C° 0 mm 1 mps 759 mmHg 89%
    03:00 +3°C° 0 mm 2 mps 759 mmHg 89%
    04:00 +3°C° 0 mm 2 mps 758 mmHg 90%
    05:00 +3°C° 0 mm 2 mps 758 mmHg 90%
    06:00 +3°C° 0 mm 2 mps 758 mmHg 91%
    07:00 +4°C° 0 mm 2 mps 758 mmHg 88%
    08:00 +4°C° 0 mm 3 mps 758 mmHg 85%
    09:00 +4°C° 0 mm 3 mps 758 mmHg 82%
    10:00 +5°C° 0 mm 4 mps 758 mmHg 79%
    11:00 +6°C° 0 mm 4 mps 758 mmHg 77%
    12:00 +7°C° 0 mm 4 mps 758 mmHg 75%
    13:00 +7°C° 0 mm 4 mps 757 mmHg 75%
    14:00 +8°C° 0 mm 5 mps 757 mmHg 75%
    15:00 +8°C° 0 mm 5 mps 756 mmHg 75%
    16:00 +7°C° 0 mm 4 mps 756 mmHg 78%
    17:00 +6°C° 0 mm 4 mps 756 mmHg 82%
    18:00 +7°C° 0 mm 3 mps 755 mmHg 85%
    19:00 +7°C° 0 mm 3 mps 755 mmHg 85%
    20:00 +5°C° 0 mm 3 mps 755 mmHg 85%
    21:00 +5°C° 0 mm 3 mps 755 mmHg 85%
    22:00 +5°C° 0 mm 4 mps 755 mmHg 85%
    23:00 +5°C° 0 mm 4 mps 754 mmHg 86%
    Show more